Wind_Speed
20 20 20 20 20 20 19 19 19 18 18 18 18 17 17 17 17 16 16 16 16 16 16 16 16 16 16 16 17 17 17 18 18 18 17 18 19 19 19 19 20 20 21 21 22 22 23 23 24 24 24 24 24 24 24 24 24 24 23 23 24 24 23 23 22 22 21 21 19 18 17 17 18 17 16 17 17 17 17 15 14 14 16 15 15 16 15 15
23 23 23 23 23 23 22 22 22 22 22 21 21 21 21 21 21 20 20 20 20 20 19 19 19 19 20 20 20 20 21 21 22 22 20 21 22 22 22 22 22 23 23 24 24 24 25 25 26 26 26 26 26 26 26 26 26 26 25 25 26 26 25 26 26 25 25 24 23 22 20 19 19 19 17 18 18 19 19 17 15 16 17 16 16 17 16 15
26 26 26 26 26 26 25 25 25 25 25 24 24 24 24 24 24 24 24 24 24 23 23 23 23 23 23 23 24 24 24 25 26 25 24 25 25 25 25 25 25 25 26 26 26 26 27 27 27 28 28 28 28 28 29 29 28 28 27 26 28 28 27 28 28 27 28 28 27 26 25 23 22 21 20 20 19 19 21 20 16 17 19 18 17 18 18 17
29 29 29 29 29 29 28 28 28 28 28 27 27 27 27 27 26 27 27 27 27 27 27 27 27 27 27 27 27 27 28 28 29 29 28 28 28 28 29 29 29 29 28 29 29 29 29 29 29 29 30 30 30 30 31 32 30 29 29 29 29 30 29 30 29 29 30 30 30 29 28 27 25 24 23 23 20 19 23 23 18 18 19 19 18 18 18 18
32 32 31 31 31 31 30 30 30 30 30 29 29 29 29 29 29 29 28 29 29 29 29 29 29 29 30 30 29 29 30 31 31 31 31 31 31 32 32 31 31 31 31 31 31 31 31 31 31 31 31 32 32 31 33 34 32 29 30 31 31 31 30 30 31 31 32 32 31 31 31 29 28 27 26 26 20 19 26 25 21 20 20 21 20 19 19 19
34 34 33 33 33 32 32 32 31 31 31 31 31 31 31 30 30 30 30 30 29 30 30 30 30 30 30 30 30 30 30 32 32 32 32 32 33 33 33 33 32 33 33 33 33 33 33 33 32 33 32 32 32 32 33 34 33 30 30 31 32 33 31 30 32 32 33 33 32 33 33 32 31 29 29 27 21 22 28 27 24 22 22 22 21 21 21 20
35 35 35 34 34 33 33 33 32 32 32 32 31 31 31 30 30 30 30 30 29 30 30 30 30 30 30 29 29 28 29 32 32 31 31 32 32 32 32 32 32 33 33 33 34 33 34 33 33 34 33 32 32 33 34 34 34 32 30 32 34 34 32 31 32 32 34 33 33 34 34 33 32 32 30 27 24 26 31 30 27 24 24 24 23 23 22 22
35 35 35 34 34 34 33 33 32 32 32 32 31 31 31 31 30 30 30 30 30 30 29 30 29 29 29 27 27 25 27 31 31 30 29 30 31 31 31 31 31 31 32 32 33 33 33 33 34 35 33 32 33 33 34 35 35 34 32 32 34 34 33 32 32 32 34 34 35 36 34 33 34 34 30 26 28 30 32 33 28 26 26 25 25 25 24 24
34 34 34 34 33 33 33 32 32 32 32 32 32 32 32 31 31 31 30 30 29 29 29 29 29 29 28 27 26 23 27 31 30 29 29 29 29 30 30 30 30 30 31 31 32 33 33 34 35 35 34 33 33 33 35 36 35 34 34 34 33 33 33 32 32 32 34 36 37 38 35 33 36 36 29 26 31 32 32 33 31 30 28 27 27 27 27 26
33 33 34 34 34 34 33 33 33 33 33 33 33 33 33 32 31 31 31 30 30 30 30 31 31 31 29 29 26 23 28 32 29 29 29 29 29 29 29 29 30 30 30 30 31 33 33 34 35 36 35 34 33 33 35 37 35 35 36 35 33 33 33 31 31 31 35 37 37 39 36 33 35 36 29 26 33 35 32 33 33 33 31 30 30 29 30 29
34 34 34 35 34 34 34 34 34 33 33 33 33 33 33 32 32 32 32 33 33 33 33 34 34 34 33 31 27 24 30 32 30 30 30 30 29 28 28 29 29 30 30 30 31 33 33 35 35 36 36 35 33 33 35 36 36 36 37 36 33 34 32 28 29 31 35 38 37 40 38 33 33 33 29 27 35 37 34 33 34 35 34 34 33 32 31 30
35 35 35 35 35 35 35 34 34 34 34 34 34 34 34 34 34 34 34 35 35 35 36 36 37 37 36 32 28 28 31 31 31 32 32 32 31 30 30 30 30 30 30 30 32 33 34 36 37 36 36 36 33 33 34 34 36 36 37 38 33 34 32 24 28 33 36 38 36 40 41 34 29 29 27 29 36 38 36 35 34 36 35 35 36 35 34 32
37 37 37 37 37 36 36 36 35 35 35 35 36 36 36 36 36 36 36 37 38 37 37 39 39 39 39 33 29 32 33 31 32 33 34 34 32 31 31 31 31 31 31 32 34 35 36 37 39 38 37 36 34 34 35 34 35 35 37 39 34 34 29 22 29 35 36 37 36 40 44 35 26 24 26 29 36 38 37 36 35 37 37 36 36 37 36 35
39 39 39 39 39 38 38 38 37 37 37 37 37 38 38 38 38 38 39 40 40 40 40 42 42 42 41 34 30 33 34 33 33 34 36 35 33 31 31 31 31 32 32 33 35 37 38 39 40 40 37 36 34 35 37 35 35 35 38 39 35 36 32 24 30 34 33 35 36 40 45 39 27 21 23 29 35 38 38 36 35 37 38 37 37 37 37 37
40 40 40 40 40 40 39 39 39 39 39 39 39 40 40 41 41 41 41 42 42 43 43 44 44 45 44 35 31 34 34 34 35 36 36 34 33 32 31 32 32 32 33 33 34 36 38 40 41 41 39 37 35 36 39 38 35 34 39 39 35 40 39 31 29 30 33 36 37 41 45 43 32 22 22 28 32 36 37 36 35 36 37 39 38 38 37 36
41 41 41 41 41 41 41 40 40 40 40 40 41 41 41 42 42 42 42 42 43 44 44 45 44 45 46 37 33 36 36 36 37 37 36 35 34 33 33 34 34 34 34 34 35 36 38 40 41 41 39 36 35 38 41 42 37 34 39 42 39 42 44 38 29 27 33 38 40 42 46 46 37 27 25 27 30 33 36 35 35 36 37 37 37 36 36 35
42 42 42 41 41 41 41 41 41 41 41 41 41 41 42 43 42 42 42 42 43 44 45 46 44 46 46 39 37 37 37 38 38 37 36 35 35 35 35 36 36 37 37 37 37 37 39 41 42 41 39 35 34 38 43 44 39 36 41 46 46 44 45 43 33 27 32 40 43 44 48 48 39 33 31 29 30 33 34 33 33 34 35 35 34 34 33 34
42 42 42 42 42 42 42 42 42 42 42 42 42 42 43 44 43 43 44 44 46 46 48 47 46 48 46 41 40 38 37 39 39 38 36 36 36 37 38 38 38 39 39 39 38 39 41 42 44 43 39 34 33 38 43 43 41 42 45 47 49 48 47 46 38 31 34 42 46 47 51 50 43 38 35 31 31 33 33 30 29 30 31 32 32 33 32 33
44 44 44 44 44 43 44 44 44 43 43 43 44 44 44 45 45 46 46 47 48 49 51 50 49 50 48 43 42 41 39 39 39 39 37 37 38 39 39 39 40 41 41 40 40 41 42 44 46 43 37 33 33 37 41 42 43 46 48 49 51 50 50 47 41 36 38 46 50 50 52 52 47 42 37 33 33 34 32 30 29 29 29 29 31 32 32 32
46 46 46 46 46 46 46 46 46 46 45 45 46 46 46 47 47 48 49 49 49 49 50 51 51 51 51 48 46 44 42 41 40 39 38 38 39 40 40 40 42 43 42 41 42 44 44 47 47 40 35 32 34 38 41 42 43 46 48 50 51 52 52 48 43 40 41 51 56 52 53 53 50 44 38 36 35 33 31 31 31 31 30 30 29 30 31 32
49 49 49 49 48 48 48 48 48 47 47 47 47 48 49 49 50 50 51 50 49 48 49 49 50 50 50 50 49 47 46 44 42 39 39 40 41 42 41 42 44 44 42 43 45 45 46 50 45 37 35 36 38 39 40 42 43 45 47 49 50 51 52 48 46 43 44 53 58 55 55 54 51 47 42 39 38 33 31 32 30 31 32 30 29 29 29 31
52 51 51 51 50 50 50 50 49 49 49 49 49 50 51 52 53 53 53 53 50 49 49 48 49 50 49 49 49 48 47 45 41 40 41 41 42 42 43 45 46 45 45 45 46 46 49 50 42 35 37 40 40 40 41 43 45 46 45 47 49 48 49 49 47 45 47 53 57 57 58 56 52 49 45 41 39 34 32 32 29 29 31 30 28 28 28 30
54 54 53 53 52 52 52 52 51 51 51 51 51 52 53 53 54 55 55 55 52 49 49 48 49 51 49 48 47 46 45 41 40 40 40 40 40 41 44 46 46 47 48 45 44 47 52 49 40 38 41 42 42 42 43 44 46 46 45 47 50 46 46 50 48 46 48 52 55 57 59 57 52 48 46 42 38 34 32 32 30 30 30 29 29 30 29 30
56 55 56 55 55 55 54 54 54 53 53 53 54 54 54 55 55 56 56 58 56 50 47 48 51 51 49 47 46 45 43 41 40 38 37 38 39 40 43 44 46 48 47 44 45 49 52 47 41 42 44 43 44 43 42 43 46 47 46 47 49 46 47 50 51 50 51 52 53 55 56 54 49 45 43 40 36 35 34 34 33 31 32 32 31 31 31 31
57 57 57 57 58 57 57 57 56 56 56 55 55 55 55 55 55 56 56 58 60 54 48 49 51 50 48 47 45 44 44 43 39 37 37 37 38 40 42 44 46 46 44 43 46 52 52 45 43 46 46 44 45 44 42 42 46 49 48 47 47 48 49 50 51 53 54 54 53 55 54 50 46 43 40 37 36 36 35 35 34 31 32 33 33 31 31 32
59 59 59 59 59 59 58 58 57 57 56 55 55 54 54 54 53 54 55 59 62 58 53 53 51 48 47 47 46 46 46 44 40 39 39 38 38 40 43 45 45 44 43 44 48 54 51 43 42 45 46 46 47 47 43 41 47 52 50 47 46 48 50 51 52 53 54 56 55 57 57 52 46 42 40 39 39 37 34 32 30 29 30 32 33 33 32 32
60 60 60 60 60 59 58 57 57 56 55 54 54 53 53 53 52 53 54 60 64 61 58 58 54 49 47 47 47 47 48 46 43 41 39 39 39 40 42 44 42 42 42 44 49 51 46 43 43 45 46 49 50 49 43 41 48 53 50 47 47 48 49 50 51 53 54 55 56 57 59 57 51 44 43 43 43 41 36 31 27 25 26 28 31 33 31 31
59 59 59 59 59 60 59 58 57 56 54 54 53 53 53 53 53 54 55 61 67 64 62 60 56 53 50 48 47 47 48 46 44 43 40 39 40 40 41 41 40 41 41 44 48 46 44 44 45 46 48 50 50 47 45 45 48 51 50 50 49 48 49 51 52 54 54 54 55 56 56 57 52 47 49 47 45 43 37 32 27 24 24 25 28 31 31 31
57 57 56 56 56 57 59 59 57 56 55 54 54 55 55 55 56 56 58 65 68 63 60 57 57 57 54 50 49 48 47 47 46 46 43 41 40 40 41 40 41 42 42 44 46 45 44 45 46 48 49 48 47 47 47 48 49 50 50 50 50 50 51 53 54 55 56 55 55 54 53 55 51 48 50 48 46 44 40 36 33 28 26 24 25 28 29 31
51 54 54 52 50 52 55 58 59 58 57 57 57 57 56 56 55 55 59 63 61 56 53 53 54 56 54 52 51 49 48 47 47 46 45 44 43 42 43 43 43 44 44 46 46 45 45 47 48 49 48 47 47 47 48 49 49 48 49 49 51 53 53 55 56 56 57 57 53 51 50 53 53 50 50 51 50 49 47 46 43 37 31 28 27 27 27 28
47 49 51 50 49 47 48 52 56 57 58 56 54 53 52 52 51 53 57 56 53 53 51 51 53 53 54 54 52 50 49 48 47 47 48 48 47 46 45 45 44 45 45 46 46 45 47 49 50 49 48 49 49 49 49 49 48 47 48 49 50 53 55 57 58 57 59 58 53 51 50 52 56 55 53 54 55 54 55 53 52 49 41 35 34 35 33 30
45 47 49 50 50 48 45 46 49 51 52 52 51 51 51 53 52 52 53 51 52 54 51 51 51 50 52 54 53 52 51 50 50 50 50 50 49 48 47 47 47 48 48 48 48 49 50 51 51 51 51 50 49 49 49 49 48 47 49 50 50 53 56 59 59 57 57 57 54 53 54 57 60 58 55 54 53 55 57 55 54 54 51 46 43 44 43 37
49 50 51 51 51 50 49 50 51 51 52 53 55 54 53 56 54 51 50 50 52 53 51 51 52 51 51 52 53 53 53 54 54 53 52 51 51 51 51 51 51 52 52 52 53 55 56 54 53 54 53 51 50 51 51 50 49 50 52 52 51 54 58 60 58 56 57 58 56 56 60 64 64 61 59 56 54 55 56 55 55 55 55 55 52 51 51 47
54 54 55 55 54 53 53 55 57 57 57 57 58 57 56 58 56 53 53 53 54 54 53 53 53 53 52 52 53 55 56 58 58 59 59 58 58 58 58 57 56 56 55 55 57 58 59 59 57 56 55 54 55 54 53 53 54 55 56 56 57 58 59 60 58 59 61 60 59 61 65 68 67 64 62 60 60 61 59 58 58 57 57 58 59 56 54 55
55 55 55 55 55 55 55 56 56 55 54 53 53 54 56 58 57 56 58 57 57 57 56 55 55 56 55 55 55 56 59 62 63 64 65 66 66 66 65 63 61 58 57 58 59 58 60 62 60 58 58 57 57 57 55 56 58 59 59 61 62 60 58 60 61 62 64 65 66 68 71 71 68 67 65 62 64 64 62 61 61 61 62 62 65 63 59 57
59 59 58 56 55 56 57 57 56 55 54 54 54 55 56 55 55 56 58 59 60 60 59 59 60 60 61 60 58 58 60 63 65 67 68 70 71 71 71 70 66 63 61 61 60 58 60 63 61 60 61 60 59 59 59 60 61 63 64 65 64 61 60 62 65 64 64 68 71 73 76 76 72 71 68 65 64 63 62 64 64 66 68 66 66 66 64 61
65 64 63 61 60 60 61 61 60 60 60 61 62 60 57 56 55 55 56 56 57 59 60 62 63 64 65 64 62 61 62 65 66 68 69 71 72 73 73 72 70 68 66 64 61 59 62 65 66 67 67 65 64 64 63 64 65 66 66 65 64 65 67 67 68 67 66 70 74 74 76 76 74 74 72 67 65 64 65 67 67 70 71 69 66 64 63 62
68 68 67 66 64 63 63 64 64 64 64 66 68 66 63 61 60 60 60 60 60 60 61 62 63 65 66 66 64 63 64 65 67 68 69 71 73 74 73 73 73 71 67 64 62 62 62 63 66 69 70 70 68 67 67 67 66 65 64 63 63 66 67 67 68 69 70 72 75 76 77 77 75 75 73 70 68 68 68 70 70 71 73 71 69 67 65 62
67 69 70 68 66 65 65 65 66 66 67 69 71 70 69 68 67 68 69 70 69 70 69 69 69 69 69 68 68 68 67 67 68 68 68 71 72 71 71 72 72 70 66 62 61 61 59 59 62 64 68 70 69 69 69 67 64 65 65 65 65 65 65 65 67 69 70 72 76 77 78 78 75 74 74 72 72 72 71 72 72 72 73 72 70 70 69 66
67 68 70 69 67 65 65 66 66 68 70 72 72 71 70 70 71 72 74 75 75 76 76 75 75 75 75 75 75 75 75 75 75 75 75 76 74 72 71 70 69 69 67 65 63 62 61 62 64 64 65 66 66 66 67 64 62 63 63 62 62 62 63 64 66 66 68 71 73 74 76 75 70 68 71 73 73 73 72 71 70 68 68 69 70 71 72 70
66 67 68 67 65 63 64 66 67 68 71 72 73 72 71 70 70 71 74 77 78 78 78 78 78 78 78 78 78 78 78 79 80 80 81 82 81 78 76 73 72 71 72 72 70 69 68 70 72 72 70 68 66 64 64 63 62 60 59 57 56 56 58 64 67 66 66 69 71 72 77 76 67 62 66 69 70 71 69 67 66 65 65 65 65 68 70 70
65 66 65 65 64 64 65 67 68 69 71 72 72 72 71 69 69 68 71 75 77 79 79 79 79 79 78 78 78 78 78 80 82 82 82 83 83 82 79 76 74 73 73 74 73 73 73 74 76 77 75 73 70 69 68 66 64 62 62 60 58 58 59 63 66 64 65 70 72 73 77 77 69 61 58 60 62 64 67 68 68 67 64 62 62 64 67 68
66 65 64 64 64 65 67 69 69 69 71 70 69 70 70 71 70 69 70 73 76 78 78 79 79 79 79 79 79 79 80 82 84 84 84 84 84 83 80 78 76 75 74 75 74 74 75 76 77 78 78 79 79 77 75 74 73 73 72 69 68 67 64 61 60 59 63 67 67 69 74 71 63 56 53 54 57 61 66 68 68 67 65 64 64 64 63 62
69 68 66 66 66 67 69 70 70 70 70 69 69 70 71 72 71 70 70 73 75 77 78 78 78 79 79 79 79 80 80 82 85 85 84 85 85 83 80 78 77 76 75 74 74 74 75 77 78 78 79 81 82 83 83 82 80 79 76 74 73 71 65 60 59 61 66 68 64 70 78 70 58 56 55 53 54 56 60 62 62 64 65 66 67 64 58 55
71 71 70 69 70 71 71 71 70 72 72 71 72 72 72 73 72 70 71 73 76 77 78 78 78 78 79 79 80 81 80 81 83 84 84 83 83 82 80 78 77 76 76 75 74 75 77 78 78 78 78 77 79 82 82 81 78 74 71 69 68 67 65 64 67 73 78 79 77 84 88 81 72 71 68 62 56 53 54 56 58 62 66 68 68 63 57 54
71 72 72 72 72 73 73 72 71 73 73 73 74 74 74 74 73 71 72 74 75 76 78 78 77 78 79 80 81 81 81 81 82 84 84 84 83 82 81 80 80 79 78 77 75 75 77 78 79 80 82 81 82 83 82 82 83 82 80 78 75 73 73 74 80 87 89 90 94 97 97 95 93 89 83 77 71 64 58 54 52 56 60 62 62 61 59 56
70 70 70 72 74 74 75 74 73 73 72 72 74 75 74 74 74 73 73 74 74 74 76 77 77 78 79 79 80 80 80 81 82 84 84 83 82 82 82 82 82 82 81 79 78 77 77 78 78 80 83 84 84 84 83 85 89 91 91 90 89 88 88 89 93 96 94 96 102 102 98 98 99 96 91 88 85 81 77 71 67 68 68 65 63 64 63 61
69 68 68 70 72 73 73 74 74 74 73 72 74 75 74 74 74 74 74 74 74 74 76 78 77 77 77 77 77 79 80 80 80 81 81 80 80 81 83 82 81 81 80 80 81 80 80 80 79 80 83 85 84 84 84 85 88 90 91 92 92 93 93 95 97 97 96 99 102 100 96 97 96 90 86 86 87 87 85 83 84 86 84 79 78 78 78 78
70 68 68 70 70 69 70 71 72 72 72 71 73 74 73 73 73 73 73 74 75 75 75 77 77 76 77 78 78 79 78 77 77 78 79 80 80 80 80 80 78 77 77 78 80 81 83 84 82 81 83 83 82 81 81 81 82 83 85 87 88 89 90 93 96 97 98 100 102 100 96 93 89 84 83 86 87 83 79 79 82 87 88 88 87 86 87 90
70 69 69 70 70 68 68 69 69 70 70 70 71 71 71 71 71 71 71 72 73 74 73 74 76 76 75 75 75 75 74 74 75 76 77 78 79 78 78 77 76 76 75 74 74 74 77 80 80 79 81 81 79 77 77 77 77 78 80 81 81 83 86 89 90 89 89 91 92 89 86 85 83 82 81 79 75 71 71 74 79 83 87 88 87 84 84 87
70 70 70 70 70 68 68 69 69 70 71 70 70 70 69 69 70 70 71 71 71 71 71 72 74 73 71 70 70 70 70 70 71 72 70 69 69 72 76 76 74 73 73 73 71 71 72 75 75 74 78 79 76 76 76 75 76 77 77 75 75 78 82 84 83 82 83 83 83 81 81 82 81 77 73 70 68 67 68 69 71 74 78 82 87 90 91 92
70 71 71 71 71 69 69 70 70 71 71 69 69 71 70 70 70 70 71 71 71 71 71 71 72 72 71 71 71 72 72 73 74 74 72 68 65 68 72 71 66 63 63 64 66 66 67 70 70 70 73 74 72 73 74 74 76 77 75 72 73 75 77 78 78 79 78 78 79 79 78 76 74 71 69 67 65 64 62 61 63 66 68 72 77 82 85 86
Wind_Direction
258 260 262 264 266 267 269 271 272 273 274 274 276 277 278 279 279 280 280 281 281 281 282 283 285 286 288 289 291 292 292 293 292 292 294 294 294 295 296 297 299 299 300 300 300 300 301 301 301 301 301 301 301 301 301 300 300 301 303 303 303 305 307 307 307 307 308 308 308 308 309 309 309 313 314 313 315 316 314 317 322 317 315 321 321 317 316 315
260 262 263 265 266 268 268 270 271 273 273 274 275 276 277 278 279 279 280 280 281 281 282 282 283 284 285 286 287 289 290 291 291 291 293 292 292 293 293 293 294 294 294 294 295 295 296 296 296 297 297 297 297 298 297 296 297 297 299 299 298 299 301 301 302 302 302 302 301 301 301 301 303 306 308 307 310 311 307 309 314 311 310 314 316 315 315 312
262 264 265 266 267 268 269 270 271 272 273 274 274 275 276 277 278 279 279 280 280 281 281 282 283 284 284 285 287 289 290 291 290 290 291 291 292 292 292 292 292 292 292 292 292 292 292 292 292 293 293 293 293 294 293 293 293 295 296 295 293 295 297 296 298 298 298 298 298 298 297 298 298 299 301 300 305 306 299 302 307 304 304 305 308 311 311 309
264 265 266 267 268 269 270 270 271 272 273 273 274 275 275 276 277 277 278 279 279 280 280 281 282 283 283 284 286 288 290 290 290 290 291 291 292 292 292 293 292 292 292 291 292 291 291 291 290 290 290 290 291 291 290 289 290 292 293 291 290 292 293 294 295 295 295 295 295 295 295 296 295 296 295 295 301 299 292 295 300 299 298 299 302 304 305 304
264 265 266 267 267 268 269 270 271 271 272 273 274 274 275 275 276 276 277 277 278 279 279 280 281 281 282 283 284 286 287 287 287 289 290 290 291 291 292 292 292 292 292 292 292 291 291 291 290 289 289 289 289 289 288 288 289 290 290 289 288 289 291 292 292 293 292 293 293 292 293 294 293 293 292 293 298 291 286 290 294 294 293 294 296 297 298 297
263 264 265 265 266 267 268 268 269 270 271 271 272 273 273 274 275 275 276 276 277 277 277 278 279 280 280 282 283 284 286 286 285 287 288 288 289 290 291 291 291 292 292 292 292 292 291 291 290 288 288 288 288 288 287 287 289 289 289 288 287 288 291 290 290 292 292 291 291 290 292 292 291 289 290 295 294 283 282 286 288 289 289 290 292 292 292 292
261 262 263 264 265 266 266 267 268 269 269 270 271 271 272 272 273 274 274 275 275 275 276 276 277 278 279 280 282 284 286 285 284 286 287 288 288 289 289 289 290 291 291 292 292 292 292 292 290 288 289 289 287 287 287 287 288 289 288 286 287 289 290 288 289 291 290 290 289 288 289 289 287 286 289 295 289 280 282 285 287 286 284 286 287 286 286 288
261 262 262 263 264 265 265 266 267 268 268 269 270 270 271 271 272 272 272 273 273 273 274 274 275 276 277 279 281 285 286 284 284 286 287 288 289 289 289 289 290 291 292 292 293 293 294 292 290 290 292 289 288 289 287 287 287 289 287 285 287 289 289 288 289 290 288 287 286 286 287 286 284 285 290 293 285 280 282 286 287 283 281 282 281 280 280 282
262 263 263 263 264 265 265 266 267 267 268 269 269 270 270 271 271 271 271 271 271 272 272 273 274 274 276 278 281 287 286 282 285 288 288 288 288 289 290 290 291 292 292 293 294 294 294 292 292 293 292 290 290 290 287 287 288 289 287 285 286 287 287 288 290 290 287 285 285 285 285 284 285 287 292 290 281 280 282 285 285 281 280 278 276 276 277 278
263 264 265 265 265 266 266 267 267 268 268 268 269 269 269 270 270 270 271 271 271 272 272 273 274 274 276 276 280 286 282 280 286 288 288 288 288 288 289 291 292 292 292 293 293 292 292 292 292 292 292 291 291 290 288 288 289 288 287 286 287 285 285 288 290 289 285 283 284 285 285 285 285 289 293 287 279 280 281 281 281 281 280 277 275 275 276 278
264 265 265 266 266 266 267 267 267 268 268 268 268 269 269 269 270 271 272 272 272 273 274 274 274 275 275 276 280 280 277 280 285 285 286 286 286 287 289 291 292 292 292 292 291 290 291 291 291 291 291 291 292 291 289 290 290 289 289 288 287 285 285 289 289 285 281 282 285 286 287 287 288 292 294 285 278 278 278 277 278 279 279 279 278 277 276 277
263 264 265 266 266 266 266 267 267 267 267 268 268 269 269 269 270 271 272 273 273 274 275 275 275 276 275 277 279 276 275 280 283 282 282 282 284 287 289 290 291 291 290 290 289 289 290 290 290 290 290 291 292 291 289 290 290 291 291 288 287 286 287 291 285 279 280 284 288 288 288 289 293 297 295 284 277 278 277 277 276 276 278 279 280 279 278 276
264 264 265 266 267 267 267 267 267 268 268 269 269 269 270 270 270 271 272 273 273 273 274 275 275 275 275 277 278 276 276 278 278 279 279 279 283 286 288 289 290 289 289 288 288 288 288 288 288 288 289 290 291 290 290 291 291 293 291 289 291 286 285 283 275 276 282 287 291 289 288 291 295 298 294 283 279 279 278 278 278 278 279 279 279 279 278 276
263 264 265 266 267 268 268 269 269 269 269 270 271 271 271 271 271 271 271 272 273 273 273 274 275 275 276 277 277 276 277 277 276 276 277 280 283 285 288 288 288 288 288 287 286 285 285 285 285 286 287 288 290 290 291 292 292 294 291 292 293 286 279 272 271 280 286 288 289 287 288 292 295 295 291 283 282 282 280 280 279 279 279 279 278 278 278 277
262 263 264 264 265 266 267 268 269 269 269 270 270 270 271 271 271 271 271 272 273 273 274 274 275 276 276 277 276 275 275 275 275 276 278 282 284 286 287 286 287 287 286 286 285 284 283 283 282 284 286 287 290 291 290 290 291 294 292 291 289 283 280 276 276 286 289 287 286 285 287 290 293 292 284 282 286 286 283 282 281 279 278 277 278 278 278 278
261 262 262 263 264 265 266 266 267 268 268 269 269 270 270 270 271 271 271 272 273 273 273 273 274 275 275 276 274 273 274 274 275 277 279 281 283 285 285 284 285 285 284 284 284 283 283 283 283 284 285 288 291 290 288 287 291 293 289 286 284 282 284 284 283 287 288 287 285 284 284 287 292 292 281 279 283 285 284 282 280 278 276 276 276 277 277 276
261 261 262 263 263 264 265 265 266 266 267 267 268 268 268 268 269 270 270 271 272 272 272 272 273 273 273 275 273 271 272 273 274 275 277 279 282 283 283 283 284 283 283 282 282 283 283 283 284 284 285 289 292 289 286 286 290 289 284 283 283 283 285 287 289 290 287 285 283 283 283 286 290 289 282 278 280 283 284 282 278 275 275 275 275 275 275 274
261 261 262 263 264 264 265 265 265 266 266 266 266 266 267 268 268 270 271 272 272 272 272 272 273 272 273 273 272 271 270 271 273 274 276 278 280 281 282 282 282 281 280 280 281 281 282 281 281 281 285 291 294 288 284 284 285 283 280 281 282 284 285 287 292 294 289 283 281 282 283 286 287 284 281 279 280 282 284 285 282 278 276 276 275 275 274 274
261 262 263 263 264 265 265 265 265 265 265 265 265 264 265 267 269 271 273 274 274 273 273 273 272 273 274 273 272 271 270 270 271 273 275 277 279 280 280 280 280 279 278 279 280 279 279 277 276 279 288 295 292 284 280 281 281 279 279 280 282 284 285 288 293 294 290 285 282 282 284 285 284 282 282 281 280 282 285 288 286 284 281 279 278 277 277 276
262 262 263 264 265 265 266 265 265 265 265 265 264 264 264 266 270 273 275 276 276 275 274 274 273 272 274 273 272 271 270 270 270 273 275 276 277 276 276 277 277 277 278 279 277 276 276 274 275 283 293 294 285 279 279 280 280 280 280 280 282 283 284 288 291 291 290 286 283 283 283 283 284 285 284 282 280 281 286 287 284 284 284 283 283 282 280 277
263 263 264 265 265 266 266 266 266 266 266 266 265 265 266 268 271 274 276 276 276 276 276 277 277 276 275 274 272 272 271 270 271 272 273 272 272 273 274 275 274 275 276 276 274 275 275 274 278 288 290 284 279 279 281 282 282 282 282 283 283 284 285 287 288 288 287 283 283 284 283 283 285 285 283 282 281 282 284 282 280 282 284 285 284 282 279 276
263 264 265 265 266 266 267 267 267 267 267 267 266 267 268 270 272 274 275 275 275 276 277 279 280 279 277 276 275 275 274 275 275 272 270 269 270 272 273 271 271 272 272 271 273 276 274 274 281 287 282 278 278 281 282 282 282 283 284 285 284 286 288 287 286 286 283 281 283 285 284 283 283 284 283 283 284 285 282 279 278 280 283 285 282 278 276 276
263 264 265 266 266 266 267 267 267 268 268 268 268 268 268 270 272 274 274 274 272 273 276 279 279 278 278 278 278 278 279 280 277 272 270 270 269 269 268 268 269 269 268 270 273 274 272 274 281 280 275 276 279 280 281 281 280 281 283 284 284 288 290 287 286 286 282 281 283 284 284 283 283 284 285 286 287 286 283 281 278 276 279 282 278 275 275 274
263 264 264 265 265 265 266 266 267 267 268 268 268 269 269 270 271 273 273 273 272 271 273 275 275 276 278 279 280 281 281 278 275 273 273 270 269 266 265 266 266 266 268 271 272 270 269 273 278 276 274 276 277 278 278 277 277 278 281 282 284 287 286 284 286 286 283 282 284 285 285 284 285 286 286 288 288 287 285 282 278 276 279 280 274 273 276 274
263 264 264 264 265 265 265 265 266 266 267 267 268 269 269 270 270 271 272 272 273 272 271 270 271 273 276 278 279 279 277 276 275 274 272 269 268 267 265 265 265 267 271 272 270 267 267 272 276 275 275 276 275 273 274 276 277 277 278 279 281 282 282 282 284 284 284 285 285 286 284 284 286 287 289 292 290 286 282 280 280 280 280 279 275 273 274 274
264 264 264 265 265 265 265 266 266 266 266 266 267 268 269 269 269 269 270 272 273 274 272 269 268 270 273 275 276 276 276 276 276 273 271 270 268 267 266 265 267 269 271 270 268 267 269 273 274 272 273 273 271 270 273 278 277 275 276 278 278 278 279 280 281 282 283 285 286 285 284 286 289 290 294 296 292 286 282 281 284 284 280 278 276 274 273 271
264 264 264 264 265 265 265 266 265 265 265 265 266 267 267 267 268 268 270 272 273 274 273 272 272 271 270 270 271 273 274 274 273 271 270 269 268 267 267 267 269 269 269 269 267 268 273 275 273 272 272 271 271 274 277 277 274 275 278 278 277 276 277 278 279 280 280 282 284 283 284 288 292 296 299 297 291 288 287 288 288 284 279 275 274 274 273 271
264 264 264 265 265 266 265 265 264 264 264 264 265 266 266 266 267 268 270 271 272 273 274 275 277 276 273 270 269 270 270 269 270 269 268 268 268 268 268 268 268 267 267 267 267 270 274 274 274 274 273 273 276 278 277 275 274 276 277 277 276 277 277 278 278 278 278 279 280 281 285 289 291 295 297 293 289 289 291 293 291 284 277 273 272 274 274 273
265 264 264 265 267 267 265 264 264 263 263 264 265 265 265 266 266 267 268 269 271 274 277 279 279 277 275 272 271 269 266 265 267 267 267 267 267 267 267 267 266 265 266 267 269 272 274 275 275 275 275 277 278 277 276 274 274 274 275 276 278 278 278 278 277 277 277 276 277 280 286 290 290 289 290 288 289 292 294 295 294 289 285 280 273 271 271 270
266 263 262 264 267 269 267 265 264 264 265 266 266 266 266 266 267 268 267 267 271 276 280 282 280 278 277 274 273 269 264 263 264 266 267 267 266 265 265 265 265 264 265 267 269 271 273 275 275 276 279 279 277 275 274 273 273 273 275 276 277 278 278 277 276 276 275 273 276 281 285 288 286 284 285 288 291 295 297 298 296 291 289 286 279 271 266 265
269 263 260 262 265 268 269 267 264 264 265 266 268 269 269 268 268 267 266 269 274 277 278 280 281 281 279 276 273 270 265 263 264 265 267 268 268 267 266 266 265 265 265 267 270 271 270 271 272 274 276 276 276 276 275 274 274 275 275 274 275 276 276 275 275 275 275 275 277 281 283 281 278 279 282 286 292 295 297 297 296 294 292 289 284 279 271 265
271 268 265 266 266 266 267 267 266 265 264 263 265 268 270 271 267 265 268 272 275 276 277 279 279 279 277 275 273 271 268 266 267 267 266 266 266 266 267 266 267 268 270 272 272 272 272 273 273 273 273 274 275 276 275 274 274 273 273 273 273 273 273 273 273 274 276 277 280 283 282 277 276 279 280 283 287 290 290 292 293 294 295 293 289 285 281 274
268 267 266 265 266 265 264 264 265 265 264 263 265 268 270 270 267 266 269 271 273 275 276 277 276 276 275 275 273 271 270 270 270 270 268 265 265 265 265 265 266 267 269 270 270 272 274 275 275 275 275 275 274 274 274 274 273 272 272 272 272 272 272 272 274 277 278 277 279 279 276 275 279 282 284 284 284 283 284 287 289 290 291 292 289 288 288 287
262 262 261 260 260 261 261 263 265 266 265 264 266 266 266 267 268 269 270 269 269 271 272 273 275 275 275 275 273 271 271 271 272 273 271 270 269 268 268 268 267 267 267 267 267 269 271 273 275 274 272 273 272 273 274 274 273 272 273 273 272 272 273 275 277 279 278 277 277 274 272 275 280 283 284 285 284 283 283 285 286 287 287 289 289 289 291 293
262 262 262 260 259 260 261 262 264 265 265 263 262 258 257 262 267 267 268 268 268 268 269 270 271 272 273 273 272 271 270 270 271 271 272 272 272 273 273 273 271 271 271 270 270 270 269 272 274 272 270 271 272 272 274 274 274 273 273 273 273 275 278 279 279 278 277 277 275 274 274 275 278 280 281 281 281 283 284 285 287 287 286 287 289 290 290 291
266 266 265 264 264 265 265 265 265 265 264 263 262 256 252 256 261 262 263 265 266 268 269 270 271 271 271 271 270 270 269 270 270 270 271 272 272 273 274 274 274 274 274 275 276 276 274 274 274 272 272 272 271 272 272 273 273 273 272 273 276 278 279 278 277 276 275 274 272 273 275 276 277 277 277 277 278 280 282 283 285 286 287 288 288 289 289 288
269 269 269 268 268 268 268 268 268 267 265 264 263 261 256 254 257 260 262 263 264 266 268 269 271 272 272 271 270 268 267 268 269 269 270 270 271 272 273 274 274 274 275 278 280 279 278 278 277 276 277 277 275 274 272 272 273 272 273 275 276 276 275 276 277 276 274 273 272 272 272 274 275 275 276 277 278 279 280 280 282 285 287 289 289 289 289 288
269 269 269 270 270 269 269 269 268 267 266 264 265 265 264 263 263 264 266 266 266 266 266 267 268 269 269 270 270 269 268 268 268 269 269 269 269 271 272 272 273 274 276 280 281 282 282 282 281 280 281 281 281 279 278 277 277 278 278 276 273 272 272 272 273 274 273 273 273 272 271 270 271 273 276 277 277 277 278 279 281 283 285 287 289 289 289 288
269 269 270 270 270 269 269 268 268 267 266 265 267 268 268 268 267 268 268 269 268 268 267 267 267 267 267 267 268 268 268 268 268 269 270 270 270 271 271 272 274 275 278 280 282 283 283 282 281 281 281 282 282 282 283 283 284 284 282 279 275 273 273 271 270 270 271 271 272 271 269 268 269 272 274 275 275 275 275 277 279 281 282 284 285 286 287 287
269 269 270 270 269 268 267 267 266 266 266 267 269 269 268 267 265 265 266 267 269 269 269 268 268 267 267 267 268 269 269 269 269 270 271 271 271 271 271 273 274 276 278 279 280 281 280 279 279 279 278 278 279 281 283 282 283 283 280 278 277 276 275 272 269 268 269 269 270 271 270 270 271 271 272 274 274 274 276 278 280 280 280 280 281 282 284 284
269 269 270 270 268 266 265 264 264 264 266 268 270 270 268 266 265 264 263 265 267 268 269 270 270 270 270 269 269 270 270 270 270 270 270 271 272 271 271 272 273 274 275 275 276 276 276 276 277 278 277 276 276 278 279 278 277 277 275 274 274 275 274 270 268 269 270 269 269 269 269 270 271 271 270 272 274 276 279 281 280 279 278 278 278 279 280 281
268 269 269 269 267 266 264 263 263 264 265 267 270 271 269 268 266 265 264 264 266 267 269 270 271 272 273 273 273 272 272 271 270 270 270 271 271 272 273 274 274 273 273 272 272 273 274 275 276 276 277 276 276 276 276 276 275 273 272 272 273 276 277 273 272 274 273 270 269 268 267 269 273 275 272 272 274 276 279 281 281 281 280 279 277 276 276 278
269 268 268 267 266 265 264 263 264 265 266 268 269 269 268 268 268 267 266 265 266 267 268 269 270 271 272 273 273 273 273 273 272 271 272 272 272 272 274 275 275 275 273 272 271 271 272 273 275 275 275 275 275 275 275 274 273 272 272 274 276 278 279 276 274 275 274 271 270 270 272 273 276 278 274 270 270 273 276 280 281 280 279 278 276 274 273 275
269 269 267 266 265 264 264 265 267 267 267 267 267 266 266 267 267 267 267 267 267 268 268 268 268 269 270 270 271 271 272 272 272 271 272 273 273 273 273 275 275 275 274 273 272 271 270 270 272 273 274 274 273 273 273 273 274 275 275 275 275 275 274 271 270 273 273 271 271 271 273 274 276 281 280 276 274 273 273 275 276 275 274 272 272 272 271 272
270 269 269 268 267 265 265 266 267 267 267 267 266 266 265 265 266 267 267 267 267 268 268 269 269 269 269 269 269 270 270 271 272 272 272 272 272 272 272 272 273 273 274 274 273 271 270 269 269 270 270 270 270 270 271 273 275 275 274 272 271 270 268 268 270 272 272 273 273 273 275 277 278 280 282 281 281 277 272 270 269 267 266 266 268 270 270 269
267 268 268 268 268 267 267 267 267 267 268 268 268 267 267 267 267 266 265 265 266 267 268 269 269 269 269 269 270 270 270 271 272 273 272 272 272 271 271 270 271 271 273 273 272 271 270 269 268 268 267 267 268 269 270 272 272 272 271 270 269 268 267 267 269 271 273 275 275 275 277 280 280 280 281 280 279 276 272 268 264 261 261 263 266 268 268 269
265 265 265 266 266 267 268 269 269 268 268 268 268 268 269 269 268 267 266 265 265 266 267 268 268 269 270 270 270 270 270 270 270 271 272 272 272 271 270 269 269 270 270 271 271 270 269 268 268 269 269 269 269 269 270 270 270 271 271 271 271 271 271 271 271 272 274 275 276 277 279 280 280 281 281 280 279 278 276 272 268 266 266 265 267 271 271 270
266 266 265 264 264 265 267 268 268 269 269 268 268 268 268 269 269 268 267 266 266 265 266 267 268 268 269 270 270 270 270 270 269 270 271 271 271 271 270 270 270 270 270 270 270 270 269 269 269 270 270 271 272 272 272 271 270 270 271 271 272 272 272 272 273 275 276 276 277 279 280 280 281 282 281 282 282 281 280 277 274 273 271 268 268 270 271 270
267 267 266 265 266 266 267 267 266 267 267 267 268 269 269 269 268 268 268 268 267 267 267 268 268 267 267 268 269 270 270 270 269 270 270 271 271 272 272 272 271 270 271 271 271 270 270 270 271 271 272 273 273 274 274 273 272 271 270 271 272 272 272 272 273 274 275 276 278 280 280 279 279 281 282 283 284 283 282 281 279 278 277 276 274 272 270 270
268 267 267 267 268 268 268 268 267 267 267 267 268 269 269 269 268 268 268 269 269 269 268 268 269 269 269 269 269 270 270 270 270 270 271 272 272 272 272 272 272 271 271 271 271 271 270 271 272 272 273 274 273 273 273 273 273 272 272 272 272 273 273 274 274 275 276 278 279 280 280 279 279 280 281 282 282 281 280 279 279 279 278 277 276 275 273 272
267 267 267 267 268 268 268 268 268 268 268 269 270 270 269 268 268 269 269 269 269 269 269 268 269 269 269 269 269 270 270 271 271 272 273 274 274 273 273 274 275 275 273 271 270 271 272 272 273 274 274 275 275 275 274 274 275 274 272 271 272 273 274 275 276 277 278 279 280 280 281 281 282 281 280 279 278 278 278 278 279 278 275 273 272 273 274 276
266 266 267 266 266 266 267 267 268 268 269 270 270 269 269 270 270 270 269 268 268 268 268 268 268 268 267 266 266 266 266 267 268 269 270 269 268 269 272 273 274 273 272 271 270 270 271 272 273 273 274 275 275 275 275 276 276 274 272 271 272 274 276 277 277 276 276 278 279 280 281 281 280 278 276 276 276 277 279 280 278 276 275 274 274 273 273 275
Height
5890 5890 5891 5891 5891 5892 5892 5892 5892 5892 5893 5893 5893 5893 5893 5893 5893 5893 5893 5893 5893 5893 5893 5893 5893 5893 5893 5893 5892 5892 5892 5892 5891 5891 5891 5891 5891 5890 5890 5890 5889 5889 5888 5888 5888 5887 5887 5886 5885 5885 5884 5884 5883 5883 5882 5882 5881 5880 5880 5879 5878 5878 5877 5876 5876 5875 5875 5874 5873 5873 5872 5871 5870 5870 5870 5868 5867 5867 5866 5866 5865 5864 5863 5862 5861 5859 5859 5858
5888 5889 5889 5889 5889 5890 5890 5890 5890 5891 5891 5891 5891 5891 5891 5891 5891 5891 5891 5891 5891 5891 5891 5891 5891 5891 5891 5891 5891 5890 5890 5890 5889 5889 5890 5889 5889 5889 5888 5888 5888 5887 5887 5886 5886 5885 5885 5884 5883 5883 5882 5882 5881 5881 5880 5880 5879 5879 5878 5877 5876 5876 5876 5874 5874 5873 5872 5872 5871 5871 5871 5870 5869 5868 5868 5867 5866 5865 5864 5864 5864 5863 5861 5861 5860 5858 5857 5856
5886 5886 5887 5887 5887 5887 5888 5888 5888 5889 5889 5889 5889 5889 5889 5889 5889 5889 5889 5889 5889 5889 5889 5889 5889 5889 5889 5889 5889 5888 5888 5888 5887 5887 5887 5887 5886 5886 5886 5886 5885 5885 5885 5884 5883 5883 5883 5883 5882 5881 5880 5879 5879 5879 5878 5877 5877 5877 5877 5875 5874 5874 5874 5872 5871 5871 5870 5869 5868 5868 5868 5868 5867 5866 5866 5864 5864 5863 5861 5862 5862 5861 5860 5859 5858 5857 5856 5855
5883 5884 5884 5884 5885 5885 5885 5886 5886 5886 5886 5887 5887 5887 5887 5887 5887 5887 5887 5887 5887 5887 5887 5887 5887 5887 5886 5886 5886 5886 5886 5885 5884 5884 5885 5884 5884 5883 5883 5883 5882 5882 5882 5881 5881 5881 5880 5880 5880 5879 5878 5877 5877 5876 5875 5874 5875 5875 5874 5873 5871 5871 5871 5869 5868 5868 5867 5866 5865 5865 5865 5865 5864 5864 5863 5862 5862 5861 5858 5859 5859 5859 5858 5857 5856 5855 5854 5853
5880 5881 5881 5881 5882 5882 5882 5883 5883 5883 5883 5884 5884 5884 5884 5884 5884 5884 5884 5884 5884 5884 5884 5884 5884 5884 5884 5884 5884 5884 5883 5882 5882 5882 5882 5882 5881 5881 5880 5880 5880 5879 5879 5878 5878 5877 5877 5877 5876 5876 5875 5874 5873 5873 5871 5870 5871 5873 5871 5869 5868 5868 5869 5867 5865 5865 5863 5862 5862 5861 5861 5861 5861 5861 5860 5860 5861 5858 5855 5855 5856 5856 5855 5854 5854 5853 5852 5851
5877 5878 5878 5878 5878 5879 5879 5879 5880 5880 5880 5880 5880 5881 5880 5881 5881 5881 5881 5881 5881 5881 5881 5881 5881 5881 5881 5881 5881 5881 5881 5879 5879 5879 5879 5879 5878 5878 5877 5877 5876 5876 5875 5875 5874 5874 5873 5873 5873 5872 5872 5871 5870 5869 5868 5867 5867 5869 5869 5866 5864 5864 5866 5865 5862 5861 5860 5859 5858 5857 5858 5857 5857 5857 5857 5857 5857 5855 5852 5852 5853 5853 5853 5852 5852 5851 5850 5849
5874 5874 5874 5875 5875 5875 5876 5876 5876 5877 5877 5877 5877 5877 5877 5878 5878 5878 5878 5878 5878 5878 5878 5877 5877 5878 5877 5878 5878 5879 5878 5875 5875 5876 5876 5875 5875 5874 5874 5874 5873 5873 5872 5871 5871 5870 5869 5869 5868 5867 5868 5868 5866 5866 5864 5863 5863 5864 5865 5863 5861 5861 5861 5861 5860 5859 5856 5855 5854 5853 5855 5854 5852 5853 5855 5855 5852 5850 5849 5848 5850 5850 5850 5850 5849 5848 5847 5846
5871 5871 5871 5872 5872 5872 5873 5873 5873 5873 5874 5874 5874 5874 5874 5874 5874 5875 5874 5875 5874 5874 5874 5874 5874 5874 5874 5875 5875 5877 5875 5872 5872 5873 5873 5872 5871 5871 5871 5870 5870 5870 5869 5868 5867 5866 5866 5865 5863 5863 5864 5864 5863 5863 5860 5859 5860 5860 5861 5859 5858 5857 5857 5857 5857 5856 5853 5852 5850 5849 5851 5850 5847 5848 5853 5853 5846 5845 5846 5845 5847 5846 5846 5847 5846 5845 5844 5844
5868 5868 5868 5868 5869 5869 5869 5870 5870 5870 5871 5870 5870 5871 5871 5871 5871 5871 5871 5871 5871 5871 5871 5871 5871 5871 5871 5872 5873 5875 5872 5868 5869 5870 5870 5869 5869 5868 5868 5867 5867 5867 5866 5865 5864 5863 5862 5861 5859 5859 5859 5859 5859 5859 5856 5855 5856 5856 5855 5855 5855 5854 5853 5854 5853 5853 5849 5847 5846 5844 5846 5846 5844 5844 5850 5850 5841 5840 5843 5842 5842 5842 5843 5843 5842 5842 5842 5841
5864 5865 5865 5865 5866 5866 5866 5867 5867 5867 5867 5867 5867 5867 5867 5868 5868 5868 5868 5868 5868 5868 5868 5868 5868 5867 5869 5869 5871 5873 5868 5865 5867 5867 5866 5866 5865 5865 5865 5865 5864 5865 5864 5863 5862 5860 5859 5857 5856 5855 5855 5855 5855 5855 5853 5851 5852 5851 5850 5851 5852 5850 5850 5851 5850 5848 5844 5842 5842 5839 5841 5843 5841 5840 5845 5846 5837 5836 5839 5839 5838 5837 5838 5838 5838 5839 5838 5838
5861 5861 5861 5862 5862 5863 5863 5863 5864 5864 5864 5864 5864 5864 5864 5865 5865 5865 5865 5864 5864 5864 5864 5864 5864 5864 5865 5866 5869 5870 5865 5864 5865 5864 5863 5862 5862 5862 5863 5862 5862 5861 5860 5860 5858 5857 5855 5854 5852 5851 5850 5851 5852 5851 5849 5848 5847 5846 5846 5846 5848 5846 5847 5849 5846 5843 5839 5838 5838 5834 5835 5839 5839 5838 5841 5841 5834 5832 5834 5835 5834 5833 5833 5833 5833 5834 5834 5834
5857 5857 5857 5858 5858 5859 5859 5860 5860 5860 5860 5860 5860 5860 5861 5861 5861 5861 5861 5860 5860 5861 5860 5860 5860 5860 5860 5864 5867 5865 5862 5862 5862 5860 5860 5859 5859 5859 5860 5860 5859 5858 5857 5856 5854 5853 5852 5850 5848 5848 5847 5846 5848 5847 5845 5845 5843 5842 5841 5840 5843 5841 5842 5846 5842 5837 5835 5833 5834 5829 5827 5834 5837 5836 5837 5836 5830 5828 5829 5830 5830 5829 5829 5829 5828 5828 5829 5830
5853 5853 5854 5854 5854 5855 5855 5856 5857 5857 5857 5857 5857 5857 5857 5857 5857 5858 5858 5857 5856 5857 5857 5855 5855 5855 5856 5861 5863 5860 5859 5860 5858 5856 5855 5855 5856 5857 5857 5856 5856 5854 5854 5853 5851 5850 5848 5846 5844 5843 5843 5843 5844 5843 5841 5841 5839 5839 5836 5834 5837 5836 5838 5842 5836 5833 5832 5830 5830 5825 5820 5828 5835 5834 5833 5830 5825 5824 5824 5825 5825 5824 5825 5825 5824 5823 5823 5824
5848 5849 5849 5850 5850 5851 5851 5852 5852 5853 5853 5853 5853 5853 5853 5853 5853 5854 5853 5853 5852 5852 5852 5851 5851 5851 5851 5857 5859 5856 5856 5855 5854 5853 5851 5852 5854 5854 5853 5853 5852 5851 5850 5849 5847 5846 5844 5842 5840 5839 5839 5839 5840 5839 5837 5837 5836 5836 5832 5830 5832 5829 5832 5837 5833 5831 5830 5827 5826 5821 5815 5821 5830 5832 5830 5826 5822 5820 5820 5821 5822 5820 5820 5820 5820 5819 5818 5819
5844 5844 5845 5845 5846 5846 5847 5848 5848 5849 5849 5849 5849 5849 5848 5848 5849 5849 5849 5849 5848 5848 5848 5847 5847 5846 5846 5853 5855 5853 5852 5851 5850 5849 5849 5850 5850 5850 5850 5849 5848 5847 5846 5845 5843 5842 5839 5838 5836 5835 5835 5836 5837 5836 5833 5832 5833 5833 5827 5826 5826 5822 5823 5831 5832 5830 5827 5824 5822 5817 5812 5815 5824 5829 5827 5823 5820 5817 5816 5817 5818 5817 5816 5815 5815 5815 5814 5815
5840 5840 5840 5841 5841 5842 5842 5843 5844 5844 5844 5845 5845 5844 5844 5843 5844 5844 5844 5844 5843 5843 5843 5842 5843 5841 5841 5848 5851 5848 5848 5847 5846 5846 5846 5846 5846 5846 5846 5845 5844 5843 5842 5840 5839 5838 5835 5833 5831 5831 5832 5834 5835 5832 5828 5826 5829 5830 5823 5819 5820 5818 5817 5822 5829 5830 5825 5819 5816 5814 5809 5809 5818 5823 5823 5821 5818 5815 5813 5814 5815 5813 5812 5811 5811 5810 5810 5810
5835 5836 5836 5836 5837 5837 5838 5838 5839 5839 5840 5840 5840 5839 5839 5838 5839 5839 5839 5839 5838 5838 5837 5836 5838 5836 5836 5842 5845 5844 5844 5842 5842 5842 5842 5843 5842 5842 5841 5841 5840 5838 5837 5836 5835 5833 5831 5829 5826 5826 5828 5831 5833 5829 5823 5821 5824 5825 5819 5814 5813 5814 5813 5814 5823 5827 5823 5815 5811 5809 5804 5805 5813 5817 5817 5817 5816 5812 5810 5811 5811 5810 5809 5808 5807 5806 5806 5805
5831 5831 5831 5832 5832 5833 5833 5833 5834 5834 5835 5835 5835 5835 5834 5833 5834 5833 5834 5834 5833 5833 5831 5831 5833 5830 5832 5837 5838 5839 5840 5838 5838 5838 5839 5839 5838 5838 5837 5836 5835 5834 5832 5832 5831 5829 5826 5824 5821 5821 5825 5829 5829 5824 5818 5817 5818 5817 5814 5810 5808 5809 5809 5809 5816 5820 5817 5810 5805 5803 5799 5800 5806 5809 5811 5813 5812 5809 5807 5808 5807 5807 5806 5805 5803 5802 5802 5800
5826 5826 5827 5827 5828 5828 5828 5828 5829 5829 5830 5830 5830 5830 5830 5828 5828 5828 5828 5828 5828 5828 5826 5826 5827 5825 5826 5831 5832 5833 5834 5834 5834 5834 5835 5835 5834 5833 5832 5831 5830 5828 5827 5827 5826 5824 5821 5818 5815 5818 5824 5827 5824 5818 5814 5813 5813 5810 5808 5806 5804 5804 5804 5806 5811 5813 5810 5801 5797 5798 5794 5793 5797 5801 5805 5807 5807 5804 5804 5805 5803 5802 5802 5800 5799 5798 5798 5796
5821 5821 5822 5822 5823 5823 5823 5824 5824 5824 5825 5825 5825 5825 5825 5824 5823 5823 5823 5822 5823 5823 5821 5820 5821 5821 5821 5824 5826 5826 5828 5829 5829 5830 5831 5830 5829 5828 5827 5826 5824 5822 5823 5823 5820 5817 5816 5811 5811 5817 5822 5821 5817 5812 5810 5810 5808 5805 5803 5801 5801 5800 5799 5803 5806 5807 5805 5793 5787 5791 5788 5785 5788 5793 5798 5800 5800 5801 5801 5800 5799 5798 5797 5796 5796 5794 5793 5792
5816 5816 5817 5817 5818 5818 5818 5818 5819 5819 5820 5820 5820 5820 5820 5819 5818 5818 5817 5817 5817 5817 5817 5816 5815 5816 5818 5817 5818 5820 5821 5823 5825 5827 5826 5825 5823 5822 5822 5821 5818 5817 5818 5816 5813 5812 5810 5805 5809 5817 5817 5813 5810 5809 5808 5806 5803 5801 5799 5797 5797 5796 5795 5798 5800 5801 5800 5787 5779 5782 5780 5778 5782 5785 5790 5793 5794 5796 5797 5796 5795 5794 5792 5792 5792 5791 5789 5787
5811 5811 5811 5812 5812 5812 5813 5813 5813 5814 5814 5815 5815 5815 5814 5813 5812 5812 5811 5811 5813 5813 5811 5812 5811 5810 5812 5812 5813 5814 5815 5817 5821 5821 5820 5819 5818 5818 5816 5813 5812 5812 5811 5809 5808 5808 5803 5800 5809 5814 5809 5806 5805 5806 5804 5801 5799 5797 5796 5794 5791 5792 5791 5791 5793 5794 5792 5782 5775 5776 5772 5770 5776 5778 5782 5787 5788 5790 5791 5790 5791 5790 5787 5788 5788 5787 5786 5784
5805 5806 5806 5806 5807 5807 5807 5807 5808 5808 5808 5809 5809 5809 5809 5808 5807 5806 5804 5803 5807 5809 5808 5808 5806 5804 5806 5807 5808 5809 5810 5813 5814 5813 5814 5813 5813 5812 5808 5807 5806 5804 5803 5805 5806 5802 5795 5797 5806 5807 5802 5801 5801 5801 5799 5796 5795 5793 5793 5790 5786 5790 5788 5783 5784 5787 5785 5779 5773 5771 5764 5761 5769 5772 5774 5780 5782 5783 5785 5785 5785 5785 5784 5784 5783 5782 5782 5781
5799 5800 5800 5800 5801 5801 5801 5802 5802 5802 5803 5802 5803 5803 5803 5803 5802 5801 5799 5796 5797 5804 5806 5804 5800 5799 5801 5803 5804 5804 5805 5806 5806 5807 5808 5806 5806 5805 5802 5802 5799 5797 5799 5802 5801 5795 5790 5795 5801 5799 5797 5797 5796 5795 5795 5792 5790 5789 5789 5787 5783 5786 5784 5778 5778 5777 5776 5774 5772 5769 5759 5752 5761 5767 5768 5775 5777 5777 5779 5778 5779 5780 5780 5779 5779 5778 5777 5776
5793 5794 5794 5795 5794 5795 5795 5796 5796 5796 5796 5796 5796 5796 5796 5797 5796 5795 5794 5790 5788 5795 5801 5798 5795 5796 5798 5799 5799 5799 5798 5799 5801 5801 5801 5799 5799 5797 5796 5795 5792 5793 5796 5797 5794 5787 5786 5794 5796 5792 5792 5792 5790 5789 5790 5789 5787 5784 5784 5784 5783 5781 5778 5776 5775 5771 5768 5767 5768 5767 5757 5747 5753 5761 5763 5769 5772 5771 5773 5772 5773 5776 5775 5773 5774 5774 5773 5771
5787 5787 5788 5788 5788 5788 5789 5789 5790 5790 5790 5790 5790 5790 5790 5790 5791 5790 5788 5784 5779 5786 5791 5790 5791 5794 5796 5795 5794 5793 5792 5793 5795 5795 5793 5793 5793 5791 5790 5789 5789 5791 5791 5790 5786 5780 5783 5791 5791 5787 5786 5785 5783 5783 5786 5787 5782 5777 5778 5781 5780 5777 5774 5772 5771 5769 5764 5762 5761 5760 5756 5746 5745 5754 5760 5763 5763 5763 5766 5769 5770 5771 5771 5769 5768 5768 5768 5767
5780 5780 5781 5781 5781 5782 5782 5783 5784 5784 5784 5784 5784 5785 5784 5784 5785 5784 5784 5777 5772 5776 5780 5780 5785 5790 5792 5791 5789 5789 5787 5787 5788 5788 5788 5787 5786 5785 5784 5784 5785 5785 5785 5783 5779 5777 5782 5785 5784 5782 5781 5778 5777 5779 5783 5782 5775 5772 5774 5775 5774 5772 5771 5769 5768 5766 5761 5759 5756 5752 5753 5749 5740 5744 5753 5754 5752 5754 5758 5763 5767 5767 5766 5765 5763 5762 5762 5762
5772 5773 5774 5774 5775 5775 5776 5776 5777 5778 5777 5777 5778 5778 5777 5779 5779 5779 5779 5770 5763 5767 5771 5774 5778 5780 5783 5784 5785 5784 5782 5782 5781 5780 5782 5781 5780 5779 5778 5779 5779 5778 5779 5776 5773 5775 5778 5778 5777 5777 5775 5773 5774 5776 5777 5774 5770 5769 5770 5768 5767 5767 5766 5765 5763 5761 5758 5756 5751 5747 5752 5752 5742 5739 5744 5744 5743 5746 5751 5756 5760 5761 5761 5761 5759 5757 5757 5756
5765 5766 5767 5767 5768 5769 5769 5770 5770 5770 5770 5771 5771 5771 5772 5773 5772 5774 5772 5762 5757 5761 5766 5769 5770 5770 5773 5776 5777 5778 5777 5776 5774 5773 5775 5775 5774 5774 5773 5773 5772 5771 5772 5770 5769 5772 5772 5772 5771 5769 5769 5770 5771 5771 5769 5767 5766 5765 5765 5763 5762 5761 5760 5759 5757 5755 5755 5751 5747 5747 5751 5752 5744 5736 5735 5735 5735 5739 5743 5748 5751 5753 5755 5755 5755 5754 5752 5751
5759 5759 5760 5761 5763 5763 5762 5763 5763 5762 5764 5764 5764 5764 5765 5765 5766 5766 5761 5754 5755 5760 5763 5763 5762 5762 5765 5767 5768 5769 5769 5769 5768 5768 5768 5768 5768 5768 5767 5766 5765 5765 5765 5764 5765 5767 5767 5765 5764 5763 5764 5765 5764 5763 5762 5761 5760 5760 5760 5758 5756 5754 5753 5751 5749 5749 5748 5743 5744 5748 5750 5749 5740 5731 5729 5729 5730 5733 5735 5738 5740 5742 5747 5749 5748 5749 5748 5747
5752 5752 5753 5755 5757 5757 5757 5757 5756 5756 5756 5757 5757 5758 5757 5758 5759 5756 5750 5751 5755 5756 5757 5757 5755 5756 5756 5757 5759 5760 5760 5762 5762 5762 5762 5761 5761 5761 5760 5760 5758 5758 5758 5759 5760 5761 5760 5758 5758 5759 5758 5757 5757 5756 5756 5755 5755 5754 5754 5752 5749 5747 5745 5743 5741 5742 5740 5738 5742 5746 5747 5744 5732 5725 5729 5728 5728 5729 5729 5730 5729 5730 5736 5741 5741 5741 5742 5743
5746 5746 5747 5749 5750 5751 5753 5752 5751 5750 5750 5750 5751 5751 5750 5749 5749 5747 5746 5750 5750 5748 5751 5751 5749 5750 5749 5748 5750 5751 5752 5754 5755 5756 5756 5755 5755 5755 5754 5753 5751 5750 5750 5752 5752 5753 5753 5753 5752 5751 5751 5752 5751 5750 5749 5748 5749 5748 5746 5745 5742 5740 5738 5734 5733 5735 5735 5735 5738 5739 5738 5733 5722 5721 5728 5730 5730 5728 5724 5724 5724 5722 5724 5728 5731 5730 5730 5735
5740 5740 5741 5742 5743 5745 5747 5747 5745 5745 5744 5744 5744 5743 5743 5740 5739 5741 5743 5745 5743 5741 5745 5744 5742 5744 5742 5743 5744 5743 5744 5745 5745 5746 5747 5748 5749 5749 5748 5747 5746 5744 5743 5745 5744 5744 5745 5747 5747 5744 5745 5747 5744 5742 5741 5741 5742 5740 5739 5738 5735 5734 5729 5724 5727 5730 5729 5731 5732 5731 5728 5719 5715 5719 5723 5725 5728 5725 5722 5722 5720 5719 5718 5717 5719 5719 5718 5721
5734 5734 5734 5735 5737 5738 5740 5739 5738 5739 5737 5736 5735 5734 5733 5731 5733 5736 5736 5737 5737 5736 5737 5737 5736 5736 5735 5737 5737 5737 5737 5736 5736 5736 5736 5738 5739 5739 5741 5740 5739 5738 5737 5736 5736 5737 5736 5739 5743 5739 5737 5740 5737 5735 5735 5734 5734 5732 5732 5730 5726 5727 5723 5718 5722 5723 5720 5721 5722 5720 5715 5711 5712 5715 5717 5719 5718 5716 5717 5717 5716 5714 5714 5710 5709 5712 5712 5710
5726 5726 5726 5728 5730 5731 5732 5731 5731 5731 5728 5727 5725 5723 5723 5725 5729 5730 5728 5729 5729 5728 5730 5731 5730 5729 5729 5730 5730 5731 5730 5727 5727 5727 5726 5727 5727 5729 5731 5730 5730 5729 5728 5725 5727 5729 5726 5729 5738 5733 5729 5733 5731 5730 5729 5726 5725 5726 5725 5721 5719 5722 5720 5714 5713 5714 5712 5710 5710 5708 5703 5704 5710 5710 5712 5713 5709 5709 5710 5710 5710 5708 5707 5706 5703 5703 5706 5706
5718 5718 5719 5721 5724 5723 5722 5722 5723 5721 5719 5718 5713 5712 5717 5721 5722 5722 5721 5722 5721 5721 5723 5723 5723 5723 5722 5722 5723 5725 5723 5719 5719 5718 5718 5719 5718 5721 5723 5721 5721 5720 5718 5716 5716 5717 5714 5716 5727 5725 5721 5725 5724 5723 5723 5718 5716 5717 5715 5714 5715 5716 5713 5706 5701 5703 5704 5696 5698 5702 5695 5696 5704 5702 5705 5709 5705 5706 5706 5703 5703 5700 5698 5700 5698 5697 5698 5699
5709 5710 5711 5714 5715 5714 5713 5713 5713 5712 5711 5708 5703 5706 5714 5716 5716 5716 5715 5716 5715 5714 5714 5714 5715 5715 5713 5713 5716 5717 5715 5712 5712 5710 5710 5710 5710 5714 5716 5714 5714 5711 5710 5709 5706 5707 5704 5702 5712 5717 5712 5713 5714 5712 5712 5711 5708 5706 5706 5710 5711 5705 5701 5699 5691 5690 5692 5682 5684 5695 5691 5690 5695 5692 5696 5702 5702 5702 5700 5697 5697 5693 5690 5691 5691 5691 5690 5690
5699 5700 5702 5706 5705 5703 5704 5703 5702 5702 5700 5697 5696 5701 5707 5709 5711 5712 5710 5709 5708 5707 5706 5706 5707 5706 5705 5705 5707 5708 5706 5705 5703 5701 5701 5701 5701 5707 5709 5707 5706 5703 5704 5703 5697 5698 5697 5690 5696 5707 5704 5700 5702 5701 5699 5701 5700 5697 5698 5702 5701 5694 5691 5691 5683 5678 5679 5672 5669 5679 5683 5685 5689 5687 5689 5693 5694 5694 5692 5690 5689 5686 5684 5684 5683 5682 5680 5680
5689 5689 5693 5698 5695 5692 5694 5692 5690 5691 5688 5686 5690 5695 5699 5702 5704 5704 5703 5700 5698 5697 5697 5698 5699 5697 5697 5699 5699 5698 5698 5697 5695 5693 5693 5692 5693 5699 5701 5698 5698 5697 5697 5696 5691 5691 5691 5682 5682 5693 5697 5691 5690 5691 5690 5691 5691 5688 5687 5687 5687 5685 5682 5679 5674 5670 5670 5664 5659 5663 5665 5671 5683 5688 5685 5684 5684 5684 5684 5683 5682 5681 5679 5678 5677 5674 5671 5670
5678 5678 5683 5688 5684 5681 5683 5680 5679 5679 5675 5677 5683 5687 5690 5692 5694 5695 5694 5691 5689 5687 5686 5687 5688 5687 5689 5692 5691 5690 5689 5688 5687 5686 5684 5684 5686 5691 5693 5691 5691 5692 5690 5688 5686 5684 5682 5676 5671 5678 5686 5684 5683 5685 5683 5683 5682 5677 5675 5675 5674 5675 5672 5667 5662 5662 5661 5655 5651 5650 5645 5652 5674 5685 5681 5677 5674 5672 5674 5674 5673 5675 5673 5671 5670 5667 5664 5663
5668 5668 5674 5678 5673 5671 5672 5668 5668 5668 5665 5668 5674 5676 5678 5681 5683 5686 5685 5681 5679 5677 5676 5676 5676 5677 5679 5681 5682 5683 5680 5677 5678 5677 5674 5675 5677 5679 5685 5687 5685 5685 5683 5680 5679 5677 5673 5668 5664 5665 5670 5673 5677 5679 5676 5674 5673 5669 5665 5665 5666 5666 5665 5657 5650 5652 5653 5645 5642 5639 5629 5632 5656 5674 5677 5673 5669 5666 5665 5664 5663 5665 5664 5663 5663 5660 5657 5656
5659 5660 5666 5667 5662 5661 5660 5656 5657 5659 5656 5659 5665 5666 5667 5669 5673 5676 5675 5671 5668 5667 5666 5665 5666 5668 5668 5668 5671 5672 5668 5664 5666 5666 5664 5666 5667 5668 5676 5680 5677 5675 5674 5671 5670 5670 5665 5659 5655 5655 5657 5660 5665 5668 5667 5664 5663 5660 5654 5655 5659 5658 5657 5650 5642 5644 5644 5635 5632 5630 5617 5617 5637 5660 5669 5667 5664 5662 5658 5655 5654 5655 5655 5654 5653 5651 5649 5647
5650 5652 5656 5656 5653 5651 5648 5645 5649 5650 5648 5653 5658 5657 5656 5657 5661 5664 5665 5661 5657 5656 5656 5657 5658 5658 5657 5658 5658 5657 5656 5653 5652 5655 5655 5654 5657 5661 5667 5670 5667 5665 5663 5661 5662 5663 5658 5650 5646 5646 5646 5647 5651 5654 5655 5654 5653 5648 5646 5650 5651 5648 5649 5644 5636 5636 5631 5624 5626 5621 5605 5609 5628 5645 5654 5656 5655 5655 5652 5650 5649 5646 5645 5644 5641 5640 5639 5637
5640 5642 5645 5645 5643 5640 5636 5637 5642 5641 5641 5645 5647 5646 5647 5647 5649 5655 5656 5651 5647 5646 5646 5647 5649 5647 5647 5649 5647 5646 5647 5642 5638 5643 5645 5643 5646 5654 5659 5658 5656 5653 5651 5651 5653 5652 5648 5642 5638 5637 5635 5634 5638 5640 5642 5644 5644 5639 5638 5642 5641 5639 5640 5635 5630 5627 5617 5613 5621 5609 5592 5604 5626 5633 5637 5642 5645 5645 5646 5645 5642 5638 5635 5633 5630 5628 5629 5629
5629 5631 5633 5633 5631 5629 5627 5631 5634 5631 5631 5634 5634 5635 5638 5637 5640 5647 5647 5641 5638 5637 5636 5636 5638 5638 5637 5637 5635 5635 5637 5633 5628 5630 5633 5634 5637 5643 5647 5648 5646 5642 5640 5642 5641 5638 5635 5632 5630 5628 5624 5622 5625 5629 5633 5636 5634 5630 5629 5630 5631 5632 5631 5626 5622 5615 5603 5605 5610 5597 5586 5599 5617 5622 5625 5631 5634 5635 5635 5636 5634 5631 5626 5622 5620 5618 5619 5621
5619 5620 5624 5622 5618 5617 5618 5623 5624 5620 5622 5624 5621 5623 5627 5627 5631 5636 5635 5631 5631 5630 5626 5624 5627 5627 5626 5626 5625 5624 5625 5625 5621 5618 5620 5623 5626 5630 5634 5635 5635 5634 5633 5632 5628 5624 5621 5618 5619 5618 5613 5613 5616 5621 5628 5629 5621 5617 5618 5620 5621 5623 5622 5619 5611 5599 5598 5598 5590 5585 5589 5591 5598 5608 5614 5619 5623 5623 5624 5627 5626 5623 5617 5612 5612 5611 5611 5611
5608 5611 5614 5611 5606 5607 5610 5613 5613 5611 5613 5613 5609 5611 5616 5617 5619 5622 5622 5622 5623 5622 5617 5614 5617 5617 5615 5616 5615 5611 5613 5615 5612 5609 5609 5610 5613 5616 5619 5622 5623 5624 5625 5622 5617 5615 5608 5603 5607 5606 5601 5604 5608 5611 5618 5617 5608 5605 5606 5607 5609 5611 5610 5607 5596 5590 5598 5589 5568 5576 5591 5582 5581 5595 5600 5603 5608 5609 5612 5616 5613 5611 5611 5609 5606 5603 5602 5602
5598 5601 5602 5598 5596 5600 5602 5603 5602 5600 5602 5602 5599 5600 5606 5608 5608 5608 5609 5611 5612 5613 5608 5605 5608 5608 5606 5605 5602 5599 5601 5603 5600 5600 5600 5598 5599 5602 5605 5610 5612 5612 5613 5610 5607 5606 5597 5589 5596 5596 5589 5592 5596 5597 5602 5603 5597 5595 5594 5593 5596 5598 5596 5592 5584 5585 5589 5573 5557 5570 5580 5569 5570 5580 5582 5586 5592 5591 5592 5595 5594 5596 5599 5601 5599 5597 5594 5591
5588 5590 5590 5587 5587 5593 5594 5592 5592 5591 5592 5592 5588 5589 5594 5597 5597 5597 5597 5598 5599 5602 5600 5596 5596 5597 5595 5594 5592 5589 5590 5591 5589 5590 5590 5587 5588 5590 5591 5596 5600 5600 5600 5598 5596 5595 5587 5580 5586 5586 5578 5579 5584 5584 5586 5586 5583 5583 5583 5583 5584 5583 5581 5579 5575 5576 5574 5561 5556 5564 5562 5557 5563 5568 5568 5572 5575 5574 5573 5574 5575 5578 5581 5584 5586 5584 5579 5574
5577 5578 5579 5577 5578 5584 5584 5580 5580 5580 5581 5582 5580 5581 5583 5583 5584 5586 5587 5586 5586 5588 5590 5586 5583 5584 5584 5584 5583 5580 5580 5580 5578 5578 5580 5578 5579 5580 5578 5580 5585 5587 5587 5586 5584 5584 5577 5571 5576 5577 5567 5565 5571 5574 5573 5573 5570 5569 5571 5574 5574 5570 5568 5566 5564 5566 5563 5553 5552 5554 5546 5543 5554 5560 5558 5558 5559 5558 5558 5559 5561 5564 5565 5566 5564 5560 5557 5556
5567 5567 5569 5568 5569 5574 5574 5570 5570 5569 5570 5574 5573 5570 5570 5571 5573 5576 5577 5577 5576 5575 5577 5577 5574 5574 5574 5574 5574 5571 5570 5571 5569 5568 5571 5569 5569 5570 5568 5569 5573 5573 5574 5575 5574 5574 5570 5564 5566 5567 5556 5552 5561 5562 5560 5561 5558 5554 5556 5562 5565 5562 5558 5556 5556 5557 5553 5546 5543 5542 5535 5534 5543 5547 5543 5543 5545 5545 5547 5549 5550 5549 5549 5548 5546 5546 5546 5545
5558 5557 5558 5558 5559 5564 5564 5560 5560 5558 5561 5567 5563 5556 5558 5562 5564 5565 5564 5566 5567 5565 5566 5566 5564 5564 5565 5565 5565 5563 5561 5562 5561 5561 5563 5562 5560 5560 5560 5562 5564 5563 5564 5565 5564 5564 5563 5558 5557 5557 5547 5544 5551 5551 5548 5549 5542 5537 5544 5553 5555 5553 5550 5547 5546 5545 5545 5541 5534 5531 5528 5526 5528 5528 5527 5530 5533 5535 5539 5539 5536 5534 5534 5534 5535 5538 5538 5536